NETSAT-4

Last updated on Sun Jun 21 2026 00:03:50 GMT+0000 (Coordinated Universal Time)

1 46504U 20068U 26170.97656422 .00015061 00000+0 33294-3 0 9998 2 46504 97.8606 179.4415 0003536 325.1547 34.9468 15.43941889316200
UTC large
Height (km)
Speed (km/s)
/
Latitude / Longitude
Inclination (degrees)
Orbital Period (minutes)
Azimuth
Elevation
Range (km)
Doppler Factor

Next 0 passes for location: London (51.5072 / 0.1276)

No passes found over London.
NETSAT-4